2023/01/27 00:00:00,49.1,-1.6
2023/01/27 00:10:00,49.0,-1.5
2023/01/27 00:20:00,48.7,-1.9
2023/01/27 00:30:00,48.4,-1.6
2023/01/27 00:40:00,48.3,-1.8
2023/01/27 00:50:00,48.4,-1.5
2023/01/27 01:00:00,48.4,-2.0
2023/01/27 01:10:00,48.3,-1.9
2023/01/27 01:20:00,48.2,-2.0
2023/01/27 01:30:00,48.1,-1.7
2023/01/27 01:40:00,47.9,-1.8
2023/01/27 01:50:00,47.9,-1.8
2023/01/27 02:00:00,47.9,-1.8
2023/01/27 02:10:00,47.9,-1.6
2023/01/27 02:20:00,47.7,-1.9
2023/01/27 02:30:00,47.6,-2.0
2023/01/27 02:40:00,47.6,-1.7
2023/01/27 02:50:00,47.6,-2.0
2023/01/27 03:00:00,47.5,-1.7
2023/01/27 03:10:00,47.5,-1.7
2023/01/27 03:20:00,47.4,-1.7
2023/01/27 03:30:00,47.4,-1.7
2023/01/27 03:40:00,47.4,-1.9
2023/01/27 03:50:00,47.4,-2.1
2023/01/27 04:00:00,47.4,-1.9
2023/01/27 04:10:00,47.3,-1.4
2023/01/27 04:20:00,47.2,-1.7
2023/01/27 04:30:00,47.1,-1.8
2023/01/27 04:40:00,47.1,-1.7
2023/01/27 04:50:00,47.0,-1.8
2023/01/27 05:00:00,47.1,-1.7
2023/01/27 05:10:00,47.5,-1.2
2023/01/27 05:20:00,47.9,-0.9
2023/01/27 05:30:00,48.0,-0.9
2023/01/27 05:40:00,48.2,-1.0
2023/01/27 05:50:00,48.2,-1.2
2023/01/27 06:00:00,48.3,-1.2
2023/01/27 06:10:00,48.2,-1.2
2023/01/27 06:20:00,48.1,-1.2
2023/01/27 06:30:00,48.3,-0.7
2023/01/27 06:40:00,48.4,-1.0
2023/01/27 06:50:00,48.5,-1.1
2023/01/27 07:00:00,48.6,-1.0
2023/01/27 07:10:00,48.8,-1.0
2023/01/27 07:20:00,48.8,-1.0
2023/01/27 07:30:00,48.8,-1.2
2023/01/27 07:40:00,48.8,-0.7
2023/01/27 07:50:00,49.0,-2.1
2023/01/27 08:00:00,49.1,-0.5
2023/01/27 08:10:00,49.2,-0.7
2023/01/27 08:20:00,49.3,-0.7
2023/01/27 08:30:00,49.4,-0.2
2023/01/27 08:40:00,49.5,-0.4
2023/01/27 08:50:00,49.6,-0.3
2023/01/27 09:00:00,49.6, 0.2
2023/01/27 09:10:00,49.6, 0.3
2023/01/27 09:20:00,49.9, 0.6
2023/01/27 09:30:00,50.0, 0.7
2023/01/27 09:40:00,50.2, 0.4
2023/01/27 09:50:00,50.6, 0.0
2023/01/27 10:00:00,51.2, 1.0
2023/01/27 10:10:00,51.5, 1.4
2023/01/27 10:20:00,51.4, 1.4
2023/01/27 10:30:00,51.3, 1.7
2023/01/27 10:40:00,51.2, 1.9
2023/01/27 10:50:00,50.8, 3.0
2023/01/27 11:00:00,50.1, 4.2
2023/01/27 11:10:00,49.7, 2.5
2023/01/27 11:20:00,49.5, 6.0
2023/01/27 11:30:00,49.0, 5.4
2023/01/27 11:40:00,48.8, 4.0
2023/01/27 11:50:00,48.8, 2.8
2023/01/27 12:00:00,48.4, 1.8
2023/01/27 12:10:00,48.3, 1.1
2023/01/27 12:20:00,49.2, 1.1
2023/01/27 12:30:00,50.8, 1.0
2023/01/27 12:40:00,51.2, 1.4
2023/01/27 12:50:00,51.4, 1.9
2023/01/27 13:00:00,51.5, 2.0
2023/01/27 13:10:00,51.4, 1.4
2023/01/27 13:20:00,51.3, 1.0
2023/01/27 13:30:00,51.3, 1.0
2023/01/27 13:40:00,51.5, 0.6
2023/01/27 13:50:00,51.9, 0.8
2023/01/27 14:00:00,51.9, 0.6
2023/01/27 14:10:00,51.8, 0.4
2023/01/27 14:20:00,52.2, 0.3
2023/01/27 14:30:00,53.1, 0.4
2023/01/27 14:40:00,54.4, 0.2
2023/01/27 14:50:00,55.0, 0.7
2023/01/27 15:00:00,55.2, 0.0
2023/01/27 15:10:00,55.3,-0.1
2023/01/27 15:20:00,56.0, 0.5
2023/01/27 15:30:00,56.2, 0.2
2023/01/27 15:40:00,56.7,-0.1
2023/01/27 15:50:00,56.7, 0.0
2023/01/27 16:00:00,57.4,-0.4
2023/01/27 16:10:00,58.1,-0.6
2023/01/27 16:20:00,58.7,-1.0
2023/01/27 16:30:00,60.0,-1.1
2023/01/27 16:40:00,60.7,-1.0
2023/01/27 16:50:00,61.4,-1.6
2023/01/27 17:00:00,62.9,-1.3
2023/01/27 17:10:00,63.2,-1.1
2023/01/27 17:20:00,63.2,-1.0
2023/01/27 17:30:00,62.8,-1.2
2023/01/27 17:40:00,62.6,-1.3
2023/01/27 17:50:00,62.5,-1.4
2023/01/27 18:00:00,62.5,-1.9
2023/01/27 18:10:00,62.5,-2.3
2023/01/27 18:20:00,62.4,-2.7
2023/01/27 18:30:00,62.2,-2.4
2023/01/27 18:40:00,61.7,-2.8
2023/01/27 18:50:00,61.4,-3.2
2023/01/27 19:00:00,61.5,-2.4
2023/01/27 19:10:00,61.4,-2.4
2023/01/27 19:20:00,61.4,-3.5
2023/01/27 19:30:00,61.2,-2.4
2023/01/27 19:40:00,61.4,-2.5
2023/01/27 19:50:00,61.2,-2.4
2023/01/27 20:00:00,61.1,-1.4
2023/01/27 20:10:00,61.1,-2.1
2023/01/27 20:20:00,60.9,-2.1
2023/01/27 20:30:00,61.6,-2.0
2023/01/27 20:40:00,62.4,-2.2
2023/01/27 20:50:00,62.6,-1.8
2023/01/27 21:00:00,62.8,-2.4
2023/01/27 21:10:00,62.8,-1.8
2023/01/27 21:20:00,62.5,-2.1
2023/01/27 21:30:00,62.5,-3.0
2023/01/27 21:40:00,62.4,-2.4
2023/01/27 21:50:00,62.1,-3.1
2023/01/27 22:00:00,61.8,-3.1
2023/01/27 22:10:00,61.7,-3.6
2023/01/27 22:20:00,61.4,-3.8
2023/01/27 22:30:00,61.4,-3.6
2023/01/27 22:40:00,61.3,-3.1
2023/01/27 22:50:00,61.3,-3.0
2023/01/27 23:00:00,61.0,-2.8
2023/01/27 23:10:00,60.8,-2.6
2023/01/27 23:20:00,60.7,-2.8
2023/01/27 23:30:00,60.5,-3.0
2023/01/27 23:40:00,60.4,-3.4
2023/01/27 23:50:00,60.2,-3.8
